TimeCST,TemperatureF,Dew PointF,Humidity,Sea Level PressureIn,VisibilityMPH,Wind Direction,Wind SpeedMPH,Gust SpeedMPH,PrecipitationIn,Events,Conditions,WindDirDegrees,DateUTC
12:53 AM,36.0,28.9,76,29.83,6.0,East,8.1,-,N/A,,Haze,90,2014-02-17 06:53:00
1:53 AM,37.0,30.0,76,29.82,8.0,ESE,4.6,-,N/A,,Mostly Cloudy,110,2014-02-17 07:53:00
2:53 AM,37.0,30.0,76,29.79,8.0,East,5.8,-,N/A,,Mostly Cloudy,90,2014-02-17 08:53:00
3:53 AM,37.0,30.9,79,29.77,8.0,Calm,Calm,-,N/A,,Overcast,0,2014-02-17 09:53:00
4:53 AM,37.9,30.9,76,29.79,9.0,West,4.6,-,N/A,,Overcast,270,2014-02-17 10:53:00
5:53 AM,36.0,30.0,79,29.81,9.0,West,5.8,-,N/A,,Clear,280,2014-02-17 11:53:00
6:53 AM,36.0,30.0,79,29.86,8.0,West,6.9,-,N/A,,Partly Cloudy,280,2014-02-17 12:53:00
7:53 AM,37.9,30.0,73,29.94,8.0,WNW,16.1,24.2,N/A,,Mostly Cloudy,300,2014-02-17 13:53:00
8:53 AM,41.0,30.9,67,29.99,10.0,WNW,18.4,28.8,N/A,,Clear,300,2014-02-17 14:53:00
9:53 AM,44.1,32.0,63,30.03,10.0,WNW,12.7,-,N/A,,Clear,290,2014-02-17 15:53:00
10:53 AM,46.9,33.1,59,30.03,10.0,WNW,11.5,18.4,N/A,,Clear,290,2014-02-17 16:53:00
11:53 AM,51.1,30.9,46,30.03,10.0,WNW,16.1,27.6,N/A,,Clear,290,2014-02-17 17:53:00
12:53 PM,53.1,28.9,40,30.01,10.0,West,13.8,20.7,N/A,,Clear,280,2014-02-17 18:53:00
1:53 PM,55.0,27.0,34,29.99,10.0,WNW,16.1,-,N/A,,Clear,300,2014-02-17 19:53:00
2:53 PM,55.9,28.0,34,30.01,10.0,WSW,11.5,-,N/A,,Clear,250,2014-02-17 20:53:00
3:53 PM,55.9,27.0,33,30.02,10.0,West,11.5,20.7,N/A,,Clear,270,2014-02-17 21:53:00
4:53 PM,55.0,26.1,33,30.03,10.0,West,8.1,-,N/A,,Clear,270,2014-02-17 22:53:00
5:53 PM,53.1,24.1,32,30.03,10.0,SW,3.5,-,N/A,,Clear,230,2014-02-17 23:53:00
6:53 PM,48.9,21.9,35,30.03,10.0,South,5.8,-,N/A,,Clear,190,2014-02-18 00:53:00
7:53 PM,45.0,24.1,44,30.02,10.0,SSW,3.5,-,N/A,,Clear,200,2014-02-18 01:53:00
8:53 PM,35.1,25.0,67,30.02,10.0,South,3.5,-,N/A,,Clear,180,2014-02-18 02:53:00
9:53 PM,43.0,24.1,47,30.00,10.0,South,8.1,-,N/A,,Clear,190,2014-02-18 03:53:00
10:53 PM,44.1,25.0,47,29.98,10.0,South,5.8,-,N/A,,Clear,190,2014-02-18 04:53:00
11:53 PM,44.1,26.1,49,29.97,10.0,South,6.9,-,N/A,,Clear,190,2014-02-18 05:53:00